Weather History for KORH - May, 2013

Change the Weather History Date:

Thursday, May 16, 2013

  Actual Average Record
Temperature  
Mean Temperature 65 °F 56 °F  
Max Temperature 77 °F 66 °F 89 °F (1932)
Min Temperature 53 °F 47 °F 30 °F (1947)
Degree Days  
Heating Degree Days 0 9  
Month to date heating degree days 154 179  
Since 1 July heating degree days 6117 6526  
Cooling Degree Days 0 1  
Month to date cooling degree days 0 1  
Year to date cooling degree days 0 4  
Growing Degree Days 15 (Base 50)    
Moisture  
Dew Point 37 °F    
Average Humidity 55    
Maximum Humidity 89    
Minimum Humidity 20    
Precipitation  
Precipitation 0.00 in 0.13 in 2.79 in (2007)
Month to date precipitation 0.91 2.01  
Year to date precipitation 13.27 17.05  
Snow  
Snow 0.00 in 0.00 in T in (1984)
Month to date snowfall 0.0 0.0  
Since 1 July snowfall 108.9 64.1  
Snow Depth -    
Sea Level Pressure  
Sea Level Pressure 29.71 in    
Wind  
Wind Speed 14 mph (West)    
Max Wind Speed 28 mph    
Max Gust Speed 39 mph    
Visibility 10 miles    
Events      
T = Trace of Precipitation, MM = Missing Value Source: NWS Daily Summary

Daily Weather History Graph

Daily Weather History Graph

Search for Another Location

Airport or City:

Trip Planner

Search our weather history database for the weather conditions in past years. The results will help you decide how hot, cold, wet, or windy it might be!

Date:

Astronomy

May. 16, 2013 Rise Set
Actual Time 5:25 AM EDT 8:03 PM EDT
Civil Twilight 4:52 AM EDT 8:35 PM EDT
Nautical Twilight 4:12 AM EDT 9:16 PM EDT
Astronomical Twilight 3:26 AM EDT 10:02 PM EDT
Moon 10:57 AM EDT (5/16) 12:20 AM EDT (5/16)
Length of Visible Light 15h 42m
Length of Day
14h 38m
Waxing Crescent, 35% of the Moon is Illuminated
May 16
Waxing Crescent
May 18
First Quarter
May 25
Full
May 31
Last Quarter
Jun 8
New

Hourly Weather History & Observations

Time (EDT) Temp. Dew Point Humidity Pressure Visibility Wind Dir Wind Speed Gust Speed Precip Events Conditions
12:54 AM 53.1 °F 50.0 °F 89% 29.70 in 10.0 mi West 15.0 mph - N/A   Clear
1:54 AM 57.0 °F 48.0 °F 72% 29.68 in 10.0 mi West 18.4 mph 26.5 mph N/A   Clear
2:54 AM 54.0 °F 48.0 °F 80% 29.68 in 10.0 mi West 15.0 mph - N/A   Clear
3:54 AM 54.0 °F 44.1 °F 69% 29.68 in 10.0 mi West 18.4 mph 27.6 mph N/A   Clear
4:54 AM 54.0 °F 42.1 °F 64% 29.68 in 10.0 mi West 13.8 mph - N/A   Clear
5:54 AM 53.1 °F 42.1 °F 66% 29.69 in 10.0 mi West 15.0 mph - N/A   Clear
6:54 AM 55.9 °F 41.0 °F 57% 29.69 in 10.0 mi West 15.0 mph - N/A   Clear
7:54 AM 57.0 °F 42.1 °F 57% 29.71 in 10.0 mi West 12.7 mph - N/A   Clear
8:54 AM 62.1 °F 41.0 °F 46% 29.72 in 10.0 mi West 11.5 mph - N/A   Clear
9:54 AM 64.9 °F 39.0 °F 39% 29.74 in 10.0 mi West 16.1 mph - N/A   Clear
10:54 AM 68.0 °F 35.1 °F 30% 29.75 in 10.0 mi West 15.0 mph 26.5 mph N/A   Clear
11:54 AM 70.0 °F 34.0 °F 27% 29.74 in 10.0 mi West 18.4 mph 28.8 mph N/A   Clear
12:54 PM 73.0 °F 34.0 °F 24% 29.71 in 10.0 mi West 15.0 mph 24.2 mph N/A   Clear
1:54 PM 73.9 °F 33.1 °F 22% 29.70 in 10.0 mi West 21.9 mph 34.5 mph N/A   Clear
2:54 PM 75.9 °F 32.0 °F 20% 29.69 in 10.0 mi West 17.3 mph 36.8 mph N/A   Clear
3:54 PM 77.0 °F 34.0 °F 21% 29.68 in 10.0 mi West 20.7 mph 33.4 mph N/A   Partly Cloudy
4:54 PM 75.9 °F 32.0 °F 20% 29.68 in 10.0 mi West 18.4 mph 29.9 mph N/A   Clear
5:54 PM 75.2 °F 32.0 °F 21% 29.68 in 10.0 mi West 20.7 mph 32.2 mph N/A   Clear
6:54 PM 73.9 °F 32.0 °F 21% 29.69 in 10.0 mi West 16.1 mph 25.3 mph N/A   Clear
7:54 PM 71.1 °F 34.0 °F 26% 29.71 in 10.0 mi West 8.1 mph - N/A   Clear
8:54 PM 68.0 °F 35.1 °F 30% 29.75 in 10.0 mi NW 10.4 mph - N/A   Clear
9:54 PM 64.9 °F 32.0 °F 29% 29.78 in 10.0 mi WNW 9.2 mph - N/A   Clear
10:54 PM 63.0 °F 32.0 °F 31% 29.80 in 10.0 mi WNW 5.8 mph - N/A   Clear
11:54 PM 61.0 °F 30.0 °F 31% 29.81 in 10.0 mi NW 4.6 mph - N/A   Clear